Weather History for Havre-Saint-Pierre, QC

Change the Weather History Date:

Monday, April 22, 2013

  Actual Average Record
Temperature  
Mean Temperature 29 °F -  
Max Temperature 37 °F 46 °F 53 °F (2006)
Min Temperature 21 °F 30 °F 15 °F (2011)
Degree Days  
Heating Degree Days 36    
Moisture  
Dew Point 13 °F    
Average Humidity 53    
Maximum Humidity 86    
Minimum Humidity 30    
Precipitation  
Precipitation 0.00 in - - ()
Sea Level Pressure  
Sea Level Pressure 30.75 in    
Wind  
Wind Speed 5 mph ()    
Max Wind Speed 13 mph    
Max Gust Speed -    
Visibility 9.0 miles    
Events      
Averages and records for this station are not official NWS values.
T = Trace of Precipitation, MM = Missing Value Source: Averaged Metar Reports

Daily Weather History Graph

Daily Weather History Graph

Search for Another Location

Airport:

Trip Planner

Search our weather history database for the weather conditions in past years. The results will help you decide how hot, cold, wet, or windy it might be!

Date:

Astronomy

Apr. 22, 2013 Rise Set
Actual Time 5:06 AM EDT 7:20 PM EDT
Civil Twilight 4:31 AM EDT 7:55 PM EDT
Nautical Twilight 3:46 AM EDT 8:40 PM EDT
Astronomical Twilight 2:56 AM EDT 9:31 PM EDT
Moon 3:46 PM EDT (4/22) 3:19 AM EDT (4/22)
Length of Visible Light 15h 24m
Length of Day
14h 13m
Waxing Gibbous, 87% of the Moon is Illuminated
Apr 22
Waxing Gibbous
Apr 25
Full
May 2
Last Quarter
May 9
New
May 18
First Quarter

Hourly Weather History & Observations

Time (EDT) Temp. Windchill Dew Point Humidity Pressure Visibility Wind Dir Wind Speed Gust Speed Precip Events Conditions
12:00 AM 24.8 °F 16.9 °F 12.2 °F 59% 30.63 in 9.0 mi NNW 6.9 mph - N/A   Clear
1:00 AM 24.8 °F 16.9 °F 8.6 °F 50% 30.66 in 9.0 mi NNW 6.9 mph - N/A   Clear
2:00 AM 26.6 °F 21.2 °F 8.6 °F 47% 30.69 in 9.0 mi NNW 4.6 mph - N/A   Clear
3:00 AM 23.0 °F 15.8 °F 8.6 °F 54% 30.71 in 9.0 mi NNE 5.8 mph - N/A   Clear
4:00 AM 23.0 °F 17.0 °F 8.6 °F 54% 30.75 in 9.0 mi North 4.6 mph - N/A   Clear
5:00 AM 21.2 °F 13.6 °F 8.6 °F 58% 30.78 in 9.0 mi North 5.8 mph - N/A   Clear
6:00 AM 21.2 °F - 12.2 °F 68% 30.81 in 9.0 mi NE 2.3 mph - N/A   Clear
7:00 AM 26.6 °F 22.6 °F 8.6 °F 47% 30.82 in 9.0 mi ENE 3.5 mph - N/A   Clear
8:00 AM 28.4 °F - 5.0 °F 37% 30.84 in 9.0 mi Calm Calm - N/A   Clear
9:00 AM 30.2 °F - 5.0 °F 34% 30.84 in 9.0 mi Calm Calm - N/A   Clear
11:00 AM 32.0 °F 24.2 °F 10.4 °F 41% 30.82 in 9.0 mi South 9.2 mph - N/A   Clear
12:00 PM 33.8 °F 25.8 °F 10.4 °F 38% 30.82 in 9.0 mi SW 10.4 mph - N/A   Clear
1:00 PM 37.4 °F 30.8 °F 8.6 °F 30% 30.81 in 9.0 mi WSW 9.2 mph - N/A   Clear
2:00 PM 37.4 °F 29.3 °F 15.8 °F 41% 30.79 in 9.0 mi SW 12.7 mph - N/A   Clear
3:00 PM 37.4 °F 30.8 °F 14.0 °F 38% 30.78 in 9.0 mi WSW 9.2 mph - N/A   Clear
4:00 PM 37.4 °F 32.8 °F 17.6 °F 45% 30.76 in 9.0 mi SW 5.8 mph - N/A   Clear
5:00 PM 37.4 °F 32.1 °F 14.0 °F 38% 30.74 in 9.0 mi WSW 6.9 mph - N/A   Clear
6:00 PM 35.6 °F 29.9 °F 19.4 °F 52% 30.73 in 9.0 mi SSW 6.9 mph - N/A   Clear
7:00 PM 30.2 °F 25.4 °F 21.2 °F 69% 30.71 in 9.0 mi SSE 4.6 mph - N/A   Clear
8:00 PM 28.4 °F 22.2 °F 23.0 °F 80% 30.72 in 9.0 mi SE 5.8 mph - N/A   Clear
9:00 PM 28.4 °F 24.6 °F 24.8 °F 86% 30.71 in 9.0 mi East 3.5 mph - N/A   Clear
10:00 PM 28.4 °F 24.6 °F 23.0 °F 80% 30.70 in 9.0 mi ESE 3.5 mph - N/A   Clear
11:00 PM 28.4 °F 23.3 °F 21.2 °F 74% 30.68 in 9.0 mi SSE 4.6 mph - N/A   Clear